Lid_Strength_Index
8 10 12 10 10 10 10 11 12 10 9 10 11 11 10 8 8 9 9 9 9 8 6 5 3 3 3 3 3 3 5 4 4 4 4 4 4 3 3 2 1 1 0 -0
10 12 9 8 9 10 10 12 12 10 9 10 11 11 10 8 8 9 10 10 9 9 7 5 4 4 3 3 3 3 4 4 4 4 4 4 4 3 3 2 1 0 -0 0
10 9 7 9 9 10 11 12 12 11 9 10 12 12 10 9 8 8 9 9 9 9 8 6 4 5 4 4 3 3 3 4 4 4 4 3 3 3 2 2 1 1 0 0
9 8 8 9 10 10 12 9 10 10 12 14 11 17 12 10 10 9 10 10 10 9 8 5 5 6 5 4 3 3 3 3 4 5 4 4 5 4 3 2 2 1 0 0
9 9 10 10 9 8 10 8 10 10 12 14 13 15 12 10 11 9 10 10 10 9 8 5 5 5 5 4 3 3 3 3 3 4 4 4 3 3 3 2 2 2 1 0
8 7 8 8 7 8 7 11 11 12 13 17 13 14 14 12 10 9 10 10 10 10 8 5 5 4 5 5 3 3 4 3 3 4 4 3 4 4 4 5 4 3 2 1
10 9 8 7 10 10 11 14 17 17 18 18 12 14 13 10 9 9 9 10 10 9 8 6 5 5 5 5 3 3 3 4 3 3 4 4 4 4 4 5 4 4 3 2
13 13 9 8 10 11 12 13 16 18 18 15 12 15 12 9 8 8 7 9 9 10 8 6 5 5 5 5 4 3 3 4 3 4 3 3 3 4 4 5 5 5 4 2
12 12 8 8 9 10 12 14 11 14 14 16 14 12 10 8 8 9 10 10 10 9 8 6 5 5 5 5 4 4 4 4 4 3 4 3 3 4 4 5 6 5 4 2
11 13 10 8 8 9 11 10 14 15 18 19 16 15 15 11 10 9 10 11 9 8 8 7 5 5 5 5 4 4 4 4 4 5 5 4 4 3 4 4 5 4 4 4
10 12 11 9 10 11 11 12 12 13 14 17 19 16 10 10 10 9 10 9 9 8 7 7 6 5 5 5 5 4 4 3 3 5 5 4 4 4 4 4 4 5 4 4
9 11 13 12 10 8 10 11 12 15 16 15 16 16 9 9 8 8 9 9 9 8 7 7 5 5 5 5 4 4 4 3 3 4 5 4 4 5 5 5 5 4 4 4
10 13 14 14 13 10 12 11 11 12 13 16 18 16 8 8 8 8 9 9 9 8 8 7 6 5 5 5 4 4 4 3 3 3 4 4 5 6 6 6 5 4 5 5
7 12 12 14 12 12 13 12 11 12 16 15 15 13 10 9 9 8 9 9 9 8 7 7 5 5 4 4 4 4 4 3 3 3 3 3 4 5 5 4 4 4 4 4
9 12 11 10 9 10 11 12 12 13 12 14 12 13 10 9 9 7 8 9 9 9 8 7 7 5 4 5 4 4 4 4 3 3 3 3 4 5 5 4 5 5 5 5
10 13 12 14 10 10 11 11 11 11 11 12 12 12 8 7 7 7 8 9 9 9 8 7 6 6 4 4 5 4 5 4 3 3 3 3 4 5 4 5 5 5 5 6
11 12 14 17 12 13 16 12 11 11 10 10 13 10 8 8 8 7 6 8 8 9 8 7 6 6 3 4 4 5 5 4 3 2 2 2 3 4 5 5 5 6 7 7
12 12 13 17 15 20 12 9 9 10 10 9 9 8 8 7 7 6 6 7 7 8 8 7 6 6 4 3 4 4 5 3 3 2 2 2 3 5 5 5 6 7 8 8
9 12 15 17 18 14 12 11 11 12 12 8 9 8 7 7 7 7 5 5 6 7 7 7 6 5 5 3 4 4 5 3 2 2 2 2 3 5 5 5 6 7 7 8
10 10 13 16 18 19 13 9 7 8 14 8 8 8 8 7 11 8 5 5 5 5 6 7 6 6 5 3 3 4 4 4 3 2 2 2 2 4 5 5 6 6 7 7
14 14 15 16 17 15 10 8 7 15 13 8 7 7 8 9 7 6 6 5 5 5 6 7 6 6 5 4 3 4 4 4 3 1 1 1 2 3 4 5 5 5 6 7
15 16 16 15 17 18 8 9 11 9 7 7 7 7 7 6 6 6 5 6 5 6 5 6 7 6 5 5 3 3 4 3 3 2 2 2 2 1 3 4 5 4 5 6
14 12 14 13 13 9 7 8 6 7 7 7 7 6 6 6 6 6 5 5 5 5 5 6 6 6 6 5 4 3 3 3 3 2 2 2 2 1 2 3 4 5 5 5
10 8 11 11 10 9 7 6 6 6 6 6 6 6 5 6 5 6 5 5 5 5 5 5 6 7 7 6 5 4 3 3 2 2 2 2 2 2 2 2 3 3 3 3
10 9 11 11 10 8 8 6 6 6 5 5 5 5 5 5 5 5 5 6 5 6 5 5 6 7 6 5 5 4 4 3 3 3 2 2 2 2 2 2 3 3 3 3
8 9 11 11 9 8 8 6 5 6 6 5 5 5 5 5 5 6 6 5 5 5 5 6 5 6 6 6 5 5 4 4 4 4 4 2 2 2 2 2 2 7 7 8